Williamsport, PA

1:19 PM EDT on May 23, 2018 (GMT -0400)
Williamsport Rgnl

Weather History for KIPT - May, 2014

Change the Weather History Date:

Saturday, May 10, 2014

  Actual Average Record
Temperature  
Mean Temperature 70 °F 58 °F  
Max Temperature 78 °F 70 °F 90 °F (1953)
Min Temperature 61 °F 46 °F 29 °F (1947)
Degree Days  
Heating Degree Days 0 8  
Month to date heating degree days 79 90  
Since 1 July heating degree days 6394 5845  
Cooling Degree Days 5 1  
Month to date cooling degree days 8 5  
Year to date cooling degree days 17 10  
Growing Degree Days 20 (Base 50)    
Moisture  
Dew Point 58 °F    
Average Humidity 69    
Maximum Humidity 93    
Minimum Humidity 45    
Precipitation  
Precipitation 0.01 in 0.12 in 1.42 in (1973)
Month to date precipitation 0.35 1.13  
Year to date precipitation 9.91 12.38  
Snow  
Snow 0.00 in 0.00 in T in (1922)
Month to date snowfall 0.0 0.0  
Since 1 July snowfall 45.9 36.0  
Snow Depth 0.00 in    
Sea Level Pressure  
Sea Level Pressure 29.87 in    
Wind  
Wind Speed 8 mph (SW)    
Max Wind Speed 21 mph    
Max Gust Speed 26 mph    
Visibility 8 miles    
Events Rain , Thunderstorm    
T = Trace of Precipitation, MM = Missing Value Source: NWS Daily Summary

Daily Weather History Graph

Daily Weather History Graph

Search for Another Location

Airport or City:

Astronomy

May. 10, 2014 Rise Set
Actual Time 5:54 AM EDT 8:14 PM EDT
Civil Twilight 5:23 AM EDT 8:45 PM EDT
Nautical Twilight 4:45 AM EDT 9:23 PM EDT
Astronomical Twilight 4:03 AM EDT 10:06 PM EDT
Moon 4:05 PM EDT (5/10) 3:29 AM EDT (5/10)
Length of Visible Light 15h 21m
Length of Day
14h 19m
Waxing Gibbous, 82% of the Moon is Illuminated
May 10
Waxing Gibbous
May 14
Full
May 21
Last Quarter
May 28
New
Jun 5
First Quarter

Hourly Weather History & Observations

Time (EDT) Temp. Dew Point Humidity Pressure Visibility Wind Dir Wind Speed Gust Speed Precip Events Conditions
12:54 AM 68.0 °F 60.1 °F 76% 29.89 in 9.0 mi South 9.2 mph 18.4 mph N/A   Mostly Cloudy
1:35 AM 68.0 °F 60.1 °F 76% 29.89 in 6.0 mi North - - 0.01 in Rain Light Rain
1:54 AM 66.9 °F 60.1 °F 79% 29.87 in 8.0 mi SE 4.6 mph - 0.01 in Rain Light Rain
2:54 AM 66.9 °F 60.1 °F 79% 29.85 in 7.0 mi Variable 3.5 mph - 0.00 in   Overcast
3:54 AM 66.0 °F 61.0 °F 84% 29.85 in 7.0 mi Calm Calm - N/A   Overcast
4:54 AM 63.0 °F 61.0 °F 93% 29.86 in 4.0 mi North 5.8 mph - N/A   Mostly Cloudy
5:54 AM 62.1 °F 60.1 °F 93% 29.87 in 3.0 mi Calm Calm - N/A   Partly Cloudy
6:09 AM 61.0 °F 60.1 °F 97% 29.88 in 1.8 mi Calm Calm - N/A   Mostly Cloudy
6:36 AM 62.1 °F 60.1 °F 93% 29.89 in 4.0 mi Calm Calm - N/A   Mostly Cloudy
6:54 AM 62.1 °F 60.1 °F 93% 29.89 in 4.0 mi Calm Calm - N/A   Scattered Clouds
7:01 AM 63.0 °F 61.0 °F 93% 29.91 in 1.8 mi Calm Calm - N/A   Partly Cloudy
7:16 AM 63.0 °F 61.0 °F 93% 29.90 in 3.0 mi SE 3.5 mph - N/A   Partly Cloudy
7:54 AM 64.0 °F 61.0 °F 90% 29.90 in 3.0 mi ESE 4.6 mph - N/A   Clear
8:54 AM 66.0 °F 62.1 °F 87% 29.91 in 4.0 mi Calm Calm - N/A   Scattered Clouds
9:54 AM 68.0 °F 62.1 °F 81% 29.92 in 6.0 mi ESE 3.5 mph - N/A   Haze
10:54 AM 73.0 °F 61.0 °F 66% 29.89 in 10.0 mi Calm Calm - N/A   Partly Cloudy
11:54 AM 75.0 °F 57.0 °F 53% 29.89 in 10.0 mi SW 16.1 mph 25.3 mph N/A   Overcast
12:54 PM 77.0 °F 57.0 °F 50% 29.87 in 10.0 mi WSW 12.7 mph - N/A   Overcast
1:54 PM 78.1 °F 55.9 °F 46% 29.84 in 10.0 mi WSW 11.5 mph 19.6 mph N/A   Overcast
2:54 PM 75.0 °F 55.0 °F 50% 29.84 in 10.0 mi WSW 13.8 mph 24.2 mph N/A   Overcast
3:54 PM 75.0 °F 55.0 °F 50% 29.83 in 10.0 mi WSW 12.7 mph - N/A   Overcast
4:54 PM 73.9 °F 57.0 °F 55% 29.83 in 10.0 mi WSW 10.4 mph - N/A   Overcast
5:54 PM 73.0 °F 57.0 °F 57% 29.82 in 10.0 mi West 10.4 mph - N/A   Clear
6:37 PM 73.0 °F 55.9 °F 55% 29.84 in 10.0 mi WSW 11.5 mph - N/A Thunderstorm Mostly Cloudy
6:52 PM 73.4 °F 55.4 °F 53% 29.83 in 10.0 mi WSW 9.2 mph - N/A   Scattered Clouds
6:54 PM 73.0 °F 55.9 °F 55% 29.83 in 10.0 mi WSW 10.4 mph - N/A   Scattered Clouds
7:54 PM 71.1 °F 54.0 °F 55% 29.84 in 10.0 mi WSW 12.7 mph - N/A   Clear
8:54 PM 69.1 °F 54.0 °F 58% 29.86 in 10.0 mi West 10.4 mph - N/A   Partly Cloudy
9:54 PM 68.0 °F 54.0 °F 61% 29.88 in 10.0 mi West 10.4 mph - N/A   Mostly Cloudy
10:54 PM 66.9 °F 54.0 °F 63% 29.90 in 10.0 mi West 8.1 mph - N/A   Scattered Clouds
11:54 PM 66.0 °F 55.0 °F 68% 29.90 in 10.0 mi West 10.4 mph - N/A   Mostly Cloudy